Temperature
17 17 17 17 17 17 16 16 16 16 16 16 16 16 16 16 16 16 16 15 15 15 15 15 15 15 15 15 15 15 15 15 15 15 15 15 15 15
16 17 16 16 16 16 16 16 16 16 15 16 16 16 15 15 15 15 15 15 15 15 15 15 15 15 15 15 15 15 15 15 15 15 15 15 15 15
16 16 16 16 16 16 16 16 16 16 16 15 15 15 15 15 15 15 15 15 15 15 15 15 15 15 15 15 15 15 15 15 15 15 15 15 15 15
16 16 16 16 16 16 16 15 15 15 15 15 15 15 15 15 15 15 15 15 15 14 15 15 15 14 15 15 15 15 15 14 14 15 15 15 15 14
16 16 16 15 15 15 15 15 15 15 15 15 15 15 14 14 14 14 14 14 14 14 14 14 14 14 14 14 14 14 14 14 14 14 14 14 14 14
15 15 15 15 15 15 15 15 15 14 14 14 14 14 14 14 14 14 14 14 14 14 14 14 14 14 14 14 14 14 14 14 14 14 14 14 14 14
15 15 15 15 15 14 14 14 14 14 14 14 14 14 14 14 14 14 14 14 14 14 14 14 14 14 14 14 14 14 14 14 14 14 14 14 14 14
15 14 14 14 14 14 14 14 14 14 14 13 13 13 13 14 14 13 13 13 13 13 13 14 14 14 14 14 14 14 14 14 14 14 14 14 14 14
14 14 14 14 14 14 14 14 13 13 13 13 13 13 13 13 13 13 13 13 13 14 13 13 13 13 13 13 13 14 14 14 14 14 14 14 13 13
14 14 14 14 14 14 14 13 13 13 13 13 13 13 13 13 13 13 13 13 13 13 13 13 13 13 13 13 13 13 13 13 13 13 14 13 13 13
14 14 13 13 13 13 13 13 13 13 13 13 13 13 13 13 13 13 13 13 13 13 13 13 13 13 13 13 13 13 13 13 13 13 13 13 13 13
14 13 13 13 13 13 13 13 13 13 13 13 13 13 13 13 13 13 13 13 13 12 13 13 13 13 13 13 13 13 13 13 13 13 13 13 13 13
13 13 13 13 13 13 13 13 13 13 13 13 13 13 13 13 13 13 13 13 13 13 13 13 13 13 13 13 13 13 13 13 13 13 13 13 13 13
13 13 13 13 13 13 13 13 12 12 12 12 12 12 13 13 13 13 13 12 12 13 13 13 12 13 12 12 12 13 13 13 12 13 13 12 12 12
13 13 13 12 12 12 12 12 12 12 12 12 12 12 12 12 12 12 12 12 12 12 12 12 12 12 12 12 12 12 12 12 12 12 12 12 12 12
13 12 12 12 12 12 12 12 12 12 12 12 12 12 12 12 12 12 12 12 12 12 12 12 12 12 12 12 12 12 12 12 12 12 12 12 12 12
12 12 12 12 12 12 12 12 12 12 11 11 12 12 12 12 12 12 12 12 12 12 12 12 12 12 12 12 12 12 12 12 12 12 12 12 12 12
12 12 12 12 12 12 12 12 12 11 11 11 11 11 12 11 11 11 11 11 11 12 12 12 11 11 11 11 12 12 12 12 12 12 12 11 12 12
12 12 12 12 12 12 12 12 11 11 11 11 11 11 11 11 11 11 11 11 11 11 11 11 11 11 11 11 11 11 11 11 11 11 11 11 12 12
12 12 12 12 12 11 11 11 11 11 11 11 11 11 11 11 11 11 11 11 11 11 11 11 11 11 11 11 11 11 11 11 11 11 11 11 11 11
12 12 12 12 11 11 11 11 11 11 11 11 11 11 11 11 11 11 11 11 11 11 11 11 11 11 11 11 11 11 11 11 11 11 11 11 11 11
12 12 12 12 11 11 11 11 11 11 11 11 11 11 11 11 11 11 11 11 11 11 11 11 11 11 11 10 11 11 11 11 11 11 11 11 11 11
12 12 12 11 11 11 11 11 10 10 10 10 10 10 10 10 10 11 11 11 11 11 11 11 10 10 10 10 10 10 10 10 10 10 11 11 11 11
Wind_Speed
2 2 2 1 1 1 2 3 4 2 2 2 2 2 3 4 6 6 6 8 9 9 8 8 8 9 9 8 8 8 8 8 8 9 9 10 12 12
2 2 2 2 1 1 1 1 2 4 3 3 3 3 2 3 5 6 6 7 9 9 9 9 8 8 9 9 9 9 9 9 9 9 9 9 9 11
2 2 2 2 1 1 1 1 1 2 3 2 2 2 2 2 2 3 4 4 6 9 9 9 9 10 10 10 10 10 10 10 10 10 10 10 10 10
3 2 2 2 1 2 1 2 2 2 3 3 2 1 2 3 2 2 2 3 4 6 9 10 10 10 11 11 10 10 10 10 10 11 11 11 10 10
3 3 3 2 3 2 2 2 2 2 2 3 2 2 2 2 1 1 1 1 3 5 7 9 10 10 11 11 11 11 11 11 11 11 11 11 10 10
3 3 3 4 4 4 3 3 2 2 2 2 2 2 2 1 1 1 1 1 2 3 4 6 8 9 11 11 11 11 12 12 12 12 11 11 11 11
3 3 4 4 5 4 3 3 3 2 2 2 2 2 2 1 2 2 3 2 2 2 2 3 3 4 6 9 10 11 12 13 13 13 12 12 12 12
3 3 3 3 3 3 3 4 5 4 4 3 3 4 4 3 3 3 3 2 3 3 3 4 3 4 5 7 10 12 13 14 14 14 13 12 12 12
3 3 3 2 2 1 2 2 4 6 6 5 5 5 5 5 4 4 4 4 5 3 2 3 3 4 5 7 11 12 13 13 14 14 13 13 12 12
3 3 3 3 2 2 2 2 3 3 4 4 6 7 6 6 6 6 5 4 3 2 3 3 3 4 4 5 9 11 12 12 13 13 13 13 12 12
3 3 3 3 4 3 2 2 3 4 4 5 6 7 8 8 6 3 3 2 3 4 2 3 3 2 3 4 6 9 10 11 11 12 12 12 12 11
3 3 4 4 5 4 3 3 4 5 3 3 3 3 4 5 7 6 6 5 3 3 4 4 3 1 2 3 3 4 6 8 9 10 11 12 11 8
3 2 3 4 4 5 4 4 7 5 3 3 2 3 3 3 3 5 6 6 5 5 5 4 3 2 3 2 2 3 4 4 4 6 8 11 11 10
4 3 4 5 5 5 4 5 5 3 2 2 2 3 3 3 4 4 6 7 8 8 7 5 3 4 3 3 3 2 3 4 4 3 4 6 9 11
4 5 5 5 4 4 5 5 3 2 2 2 3 4 4 4 3 2 3 3 4 6 7 6 5 4 4 4 4 3 2 3 4 4 4 4 4 5
3 3 4 4 3 3 3 3 2 3 4 4 4 3 2 2 2 2 2 2 1 3 3 5 6 5 4 4 4 4 3 3 3 4 3 3 4 5
2 0 0 1 1 2 2 2 2 2 3 3 3 2 2 2 2 2 1 1 2 2 2 2 2 3 4 4 3 4 4 3 4 4 4 3 4 5
3 2 2 2 3 3 3 3 2 3 3 3 3 3 3 3 3 2 1 2 2 3 3 2 1 1 1 2 5 5 4 4 4 4 3 4 4 5
4 4 4 4 4 4 3 3 3 3 3 3 3 3 3 3 2 2 2 2 3 3 3 2 2 2 3 4 4 5 5 4 3 3 4 4 5 5
4 5 5 5 4 4 3 3 3 2 2 3 3 3 3 3 3 3 3 3 3 3 3 2 3 4 5 5 4 4 6 5 4 4 4 3 3 4
5 5 5 5 4 4 4 3 3 3 3 3 3 3 3 3 3 4 4 4 4 3 4 4 5 6 3 1 1 3 3 5 6 5 4 3 2 2
5 5 5 5 5 4 4 3 3 3 3 3 3 3 3 3 4 4 4 4 4 4 4 4 2 1 2 3 4 4 3 3 3 4 5 6 5 5
6 5 5 4 4 4 3 4 4 3 3 3 3 3 3 3 3 3 4 4 3 4 3 2 2 1 2 3 4 3 4 3 2 1 3 5 8 9
Wind_Direction
216 210 208 217 209 198 174 171 170 210 264 253 252 253 222 208 210 194 192 197 196 199 201 204 205 207 209 210 210 212 215 219 220 217 218 219 219 218
216 205 217 224 208 210 189 182 174 181 223 237 234 242 229 217 210 198 201 203 206 207 208 208 211 214 214 216 216 213 213 215 215 217 219 220 220 220
237 211 228 221 211 229 205 185 188 169 208 258 244 244 221 215 189 192 202 206 219 219 218 220 221 222 220 218 217 216 215 216 217 220 221 220 221 223
236 223 240 231 221 236 216 215 215 199 188 231 262 241 230 215 196 195 201 208 217 226 224 224 226 227 224 221 219 218 219 219 220 222 223 219 220 222
229 221 229 211 235 244 227 219 222 222 185 190 235 241 235 217 188 226 229 213 223 229 223 223 227 227 226 225 223 222 222 222 222 224 224 220 219 221
239 227 224 217 225 229 230 223 217 214 203 190 217 233 242 237 164 197 237 237 240 243 236 232 230 229 230 228 226 225 225 224 225 226 224 221 220 220
260 251 241 230 223 222 225 218 206 210 208 210 225 232 241 218 216 211 212 236 255 245 242 238 224 228 235 236 235 234 229 226 225 225 224 223 222 220
248 263 264 253 240 240 239 226 204 206 216 217 225 225 232 223 219 215 207 215 263 246 211 243 214 229 236 235 234 232 230 230 226 224 223 223 221 218
234 242 253 253 236 244 259 263 245 235 218 210 221 231 226 220 209 218 216 214 234 235 197 252 242 243 249 246 238 235 231 231 226 223 220 218 217 217
236 224 219 236 236 212 230 275 274 260 240 226 223 232 230 222 213 214 219 226 255 249 185 227 249 246 254 251 243 236 233 231 226 223 220 216 216 218
246 234 214 215 230 211 206 246 275 280 274 253 236 235 237 234 218 195 200 201 251 259 209 198 240 249 258 254 251 237 229 225 226 224 222 220 218 219
259 253 222 216 229 221 212 223 250 264 271 289 283 270 259 243 224 207 205 208 222 247 227 192 218 199 270 262 245 242 237 234 230 226 224 222 218 213
235 247 245 233 241 244 237 226 237 243 245 244 258 272 275 261 239 217 206 205 212 230 219 181 200 197 209 254 265 236 222 226 225 229 227 224 218 207
230 237 239 243 251 256 257 251 247 233 218 227 250 259 262 267 259 238 220 217 220 223 218 188 195 201 201 230 253 251 230 225 214 216 224 225 226 222
235 244 248 254 253 250 252 258 240 207 199 221 241 250 251 254 257 259 253 236 236 239 228 211 204 208 200 214 226 226 233 236 211 206 210 210 213 207
252 259 254 247 245 251 264 266 230 210 208 223 236 249 261 265 260 252 250 243 250 281 269 225 211 199 212 222 216 225 214 215 211 208 201 207 214 211
203 236 292 300 277 282 285 267 242 220 224 231 228 238 251 257 267 265 236 215 213 235 269 288 247 212 208 200 215 227 221 220 211 203 197 212 225 221
167 203 225 233 238 246 260 267 249 230 228 228 228 224 229 239 256 266 236 216 227 236 238 241 244 343 327 274 218 213 217 221 219 206 198 208 234 232
190 217 225 232 238 237 237 234 239 239 227 220 224 230 235 237 238 246 245 237 237 235 238 225 198 191 228 261 267 220 208 219 208 213 216 216 230 234
213 220 225 225 226 228 228 229 236 236 231 230 226 228 230 230 239 245 241 230 230 233 243 239 218 210 218 229 241 255 226 208 210 220 226 225 236 243
224 224 222 221 222 225 226 227 227 230 229 230 231 228 227 226 241 247 247 241 228 224 231 241 243 234 217 172 252 271 262 233 215 210 208 206 226 230
227 226 223 218 219 221 220 223 226 234 235 229 234 235 229 226 234 241 241 237 229 228 235 251 261 233 187 210 242 252 261 276 264 247 224 210 191 201
224 224 224 219 220 220 219 223 224 229 230 231 234 237 237 235 234 231 236 234 229 229 230 248 258 235 231 229 241 247 244 246 250 266 282 265 238 235
Height
1523 1522 1522 1522 1523 1523 1523 1523 1523 1521 1521 1521 1522 1522 1522 1521 1521 1520 1520 1521 1522 1522 1523 1523 1524 1525 1525 1526 1527 1527 1528 1529 1530 1531 1532 1533 1535 1536
1520 1520 1520 1520 1519 1520 1520 1520 1520 1519 1518 1518 1519 1519 1519 1519 1518 1518 1518 1519 1520 1520 1521 1521 1522 1522 1523 1523 1524 1525 1526 1527 1528 1529 1530 1531 1532 1532
1517 1517 1517 1517 1517 1517 1517 1517 1517 1516 1515 1515 1516 1516 1516 1516 1516 1516 1516 1516 1517 1518 1519 1519 1519 1520 1520 1521 1521 1522 1523 1523 1525 1526 1526 1528 1529 1529
1514 1514 1514 1514 1514 1514 1514 1513 1513 1513 1512 1511 1512 1513 1513 1513 1513 1513 1513 1513 1514 1515 1516 1516 1517 1517 1517 1518 1518 1519 1520 1520 1522 1523 1524 1525 1525 1526
1511 1511 1511 1511 1511 1511 1510 1510 1509 1509 1509 1508 1508 1509 1509 1510 1510 1510 1511 1511 1512 1512 1512 1513 1514 1514 1514 1515 1515 1516 1516 1517 1518 1519 1520 1521 1522 1523
1508 1508 1508 1508 1507 1507 1507 1506 1506 1506 1505 1505 1504 1505 1506 1507 1507 1507 1508 1508 1509 1509 1509 1510 1510 1510 1511 1511 1512 1512 1513 1514 1515 1516 1517 1518 1519 1519
1505 1504 1504 1504 1504 1504 1504 1503 1503 1502 1502 1502 1501 1502 1502 1503 1503 1504 1504 1505 1505 1506 1506 1506 1506 1507 1507 1508 1508 1508 1509 1510 1511 1512 1513 1514 1514 1515
1501 1501 1501 1501 1501 1501 1501 1500 1500 1499 1499 1499 1498 1498 1498 1499 1500 1501 1501 1501 1502 1503 1503 1503 1503 1503 1503 1504 1504 1505 1505 1506 1507 1508 1509 1510 1510 1511
1498 1498 1498 1498 1498 1497 1497 1497 1497 1496 1496 1496 1495 1495 1495 1496 1497 1497 1498 1498 1498 1499 1500 1498 1499 1499 1500 1500 1501 1501 1502 1503 1503 1504 1505 1506 1507 1508
1495 1495 1494 1494 1494 1494 1494 1493 1493 1493 1493 1492 1492 1491 1492 1493 1493 1494 1494 1494 1495 1496 1496 1495 1495 1495 1495 1496 1497 1497 1498 1499 1500 1501 1501 1502 1503 1504
1491 1491 1492 1492 1492 1491 1491 1490 1490 1489 1489 1488 1488 1488 1488 1489 1490 1490 1490 1491 1490 1491 1492 1492 1491 1492 1492 1492 1493 1493 1494 1495 1496 1497 1498 1499 1500 1501
1487 1488 1488 1489 1489 1488 1488 1487 1486 1486 1486 1485 1485 1485 1485 1485 1486 1486 1486 1487 1487 1487 1488 1488 1488 1488 1488 1488 1489 1490 1491 1491 1492 1493 1494 1495 1496 1497
1484 1484 1485 1485 1485 1485 1485 1484 1483 1483 1482 1481 1481 1481 1481 1481 1481 1482 1482 1483 1483 1483 1484 1485 1485 1485 1485 1485 1485 1486 1487 1487 1488 1489 1490 1491 1492 1492
1480 1481 1481 1481 1481 1481 1481 1480 1480 1479 1479 1478 1477 1477 1477 1477 1477 1478 1478 1479 1480 1480 1481 1482 1481 1482 1482 1482 1482 1482 1483 1484 1484 1485 1486 1487 1488 1488
1477 1477 1477 1477 1477 1477 1477 1477 1476 1475 1474 1474 1474 1474 1474 1474 1474 1474 1475 1475 1475 1476 1477 1477 1478 1478 1478 1478 1478 1478 1479 1479 1480 1480 1481 1482 1483 1484
1473 1473 1474 1474 1474 1474 1474 1473 1472 1472 1472 1471 1471 1471 1471 1471 1471 1471 1471 1471 1472 1472 1473 1474 1474 1474 1474 1474 1474 1474 1475 1475 1476 1476 1477 1478 1479 1480
1470 1470 1471 1471 1470 1470 1470 1469 1469 1469 1469 1468 1468 1468 1468 1467 1467 1467 1468 1468 1468 1468 1469 1470 1470 1470 1471 1471 1470 1470 1471 1471 1472 1473 1473 1473 1474 1475
1467 1467 1467 1467 1467 1466 1466 1466 1466 1465 1465 1465 1465 1465 1464 1464 1464 1464 1465 1465 1465 1465 1466 1466 1466 1467 1467 1467 1468 1467 1467 1468 1468 1469 1469 1469 1469 1470
1463 1463 1463 1463 1463 1463 1463 1463 1462 1462 1462 1462 1462 1462 1462 1461 1461 1461 1461 1462 1462 1462 1463 1463 1463 1463 1462 1462 1463 1464 1464 1464 1464 1464 1465 1465 1465 1466
1459 1459 1459 1459 1459 1459 1459 1459 1459 1459 1459 1458 1458 1458 1459 1459 1459 1458 1458 1458 1459 1459 1459 1459 1459 1459 1459 1459 1459 1459 1460 1460 1460 1460 1460 1460 1461 1462
1455 1455 1455 1456 1456 1456 1456 1456 1455 1455 1455 1455 1455 1455 1455 1455 1455 1456 1456 1455 1455 1455 1455 1455 1456 1456 1456 1456 1455 1454 1455 1456 1456 1456 1456 1456 1456 1456
1451 1451 1451 1451 1452 1452 1452 1452 1451 1451 1451 1451 1451 1451 1451 1451 1452 1452 1452 1452 1452 1452 1452 1452 1453 1453 1452 1451 1450 1450 1450 1451 1452 1452 1452 1452 1452 1451
1448 1448 1447 1447 1447 1448 1448 1447 1447 1446 1446 1447 1447 1446 1447 1447 1448 1448 1448 1449 1449 1448 1448 1448 1449 1449 1448 1448 1447 1446 1446 1446 1447 1447 1447 1448 1448 1449